CDT,Max TemperatureF,Mean TemperatureF,Min TemperatureF,Max Dew PointF,MeanDew PointF,Min DewpointF,Max Humidity, Mean Humidity, Min Humidity, Max Sea Level PressureIn, Mean Sea Level PressureIn, Min Sea Level PressureIn, Max VisibilityMiles, Mean VisibilityMiles, Min VisibilityMiles, Max Wind SpeedMPH, Mean Wind SpeedMPH, Max Gust SpeedMPH,PrecipitationIn, CloudCover, Events, WindDirDegrees
2012-9-1,87,72,57,51,47,43,77,50,22,30.16,30.10,30.02,10,10,10,17,9,23,0.00,0,,81
2012-9-2,90,70,50,66,58,49,96,69,41,30.04,29.95,29.86,10,10,10,16,7,22,0.00,0,,137
2012-9-3,86,76,66,70,68,66,90,75,59,29.92,29.88,29.84,10,9,0,14,6,16,0.23,2,Fog-Rain-Thunderstorm,198
2012-9-4,91,77,62,70,64,61,100,71,41,29.90,29.84,29.71,10,6,0,24,5,31,T,1,Fog-Thunderstorm,159
2012-9-5,82,71,59,62,56,50,93,64,35,29.87,29.79,29.67,10,10,8,28,7,35,0.10,2,Rain-Thunderstorm,282
2012-9-6,81,66,51,58,49,43,89,58,26,29.96,29.91,29.87,10,10,10,15,4,20,T,2,Rain,246
2012-9-7,70,60,50,56,52,44,93,69,44,29.97,29.93,29.88,10,9,2,22,7,26,0.20,6,Rain,342
2012-9-8,75,61,47,55,48,45,93,66,38,29.98,29.88,29.71,10,9,2,23,10,35,0.16,3,Rain-Thunderstorm,298
2012-9-9,73,61,48,52,48,43,96,65,33,30.17,30.11,29.99,10,10,10,15,4,17,0.00,2,,337
2012-9-10,79,61,43,49,46,43,100,66,32,30.12,30.04,29.90,10,8,1,24,9,30,0.00,0,,186
2012-9-11,90,76,61,54,51,48,65,45,24,29.91,29.84,29.77,10,10,10,26,13,33,0.00,0,,186
2012-9-12,77,66,54,54,50,38,93,65,37,30.25,30.09,29.85,10,10,8,18,5,26,0.08,5,Rain,268
2012-9-13,72,59,45,52,42,28,93,57,20,30.34,30.29,30.25,10,10,10,18,6,24,0.01,1,Rain,268
2012-9-14,74,57,40,45,39,32,96,59,22,30.35,30.30,30.27,10,10,10,10,2,17,0.00,1,,26
2012-9-15,82,63,44,45,41,38,100,61,22,30.28,30.14,30.00,10,10,10,24,10,30,0.00,0,,177
2012-9-16,82,68,54,56,50,43,67,52,36,29.99,29.91,29.84,10,10,10,21,9,26,0.00,0,,224
2012-9-17,64,51,38,51,43,32,96,68,40,29.96,29.91,29.86,10,10,10,18,7,23,0.08,5,Rain,331
2012-9-18,60,47,34,38,30,21,96,60,23,30.00,29.97,29.94,10,10,10,17,5,25,0.00,2,,304
2012-9-19,73,56,39,46,39,29,77,55,33,29.93,29.75,29.62,10,10,9,28,12,36,0.05,4,Rain-Thunderstorm,228
2012-9-20,64,54,44,42,36,29,83,55,27,29.88,29.85,29.78,10,10,10,22,9,29,T,3,,271
2012-9-21,62,51,39,45,41,36,92,70,47,29.86,29.82,29.77,10,10,8,28,6,36,0.10,5,Rain,272
2012-9-22,57,48,38,41,34,29,86,62,38,30.21,30.02,29.80,10,10,6,20,11,26,T,6,Rain,315
2012-9-23,58,44,30,34,29,26,92,61,30,30.30,30.24,30.17,10,10,10,18,5,28,0.00,1,,270
2012-9-24,77,54,31,38,33,29,92,56,20,30.15,29.90,29.72,10,10,10,26,9,36,0.00,0,,233
2012-9-25,68,55,41,41,37,32,83,55,27,29.97,29.86,29.75,10,10,10,14,6,18,0.00,0,,13
2012-9-26,64,47,29,37,32,28,100,65,30,30.22,30.09,29.96,10,7,0,12,4,15,0.00,0,Fog,31
2012-9-27,68,50,32,39,34,32,100,64,28,30.31,30.24,30.19,10,7,1,8,2,13,0.00,0,,49
2012-9-28,74,53,32,40,34,30,100,60,20,30.24,30.18,30.10,10,7,0,10,1,13,0.00,1,Fog,225
2012-9-29,80,60,39,42,38,34,92,56,19,30.11,30.06,30.00,10,10,10,13,3,25,0.00,0,,16
2012-9-30,75,57,38,43,38,31,92,56,20,30.04,29.99,29.91,10,10,10,10,3,13,0.00,0,,53